This demonstration page uses our WeatherBlox Daily Observations layout. Learn more.

40.92945, -100.16068

Hourly Observations for January 4, 2019

Temp ( °F °C ) Dew Point ( °F °C ) Humidity (%) Winds ( mph kmh ) Pressure ( in mb ) Visibility ( mi km ) Precip ( " mm )
12:15 am 00:15 Clear 25 -3.7 21 -6 84 84 W 6 9 30.03 1017 10 16.09344 0 0
12:35 am 00:35 Clear 25 -3.8 21 -6.1 84 84 WNW 5 7 30.03 1017 10 16.09344 0 0
12:55 am 00:55 Clear 25 -3.9 21 -6.3 84 84 WNW 8 13 30.03 1017 10 16.09344 0 0
1:15 am 01:15 Clear 25 -3.7 21 -6.1 84 84 WNW 8 13 30.03 1017 10 16.09344 0 0
1:35 am 01:35 Clear 28 -2.3 23 -5.2 81 81 WNW 12 19 30 1016 10 16.09344 0 0
1:55 am 01:55 Clear 30 -1.1 24 -4.7 77 77 WNW 15 24 30 1016 10 16.09344 0 0
2:15 am 02:15 Clear 30 -1.2 23 -5 76 76 WNW 14 22 30 1016 10 16.09344 0 0
2:35 am 02:35 Clear 28 -2 23 -5.2 79 79 WNW 15 24 30 1016 10 16.09344 0 0
2:55 am 02:55 Clear 29 -1.6 23 -5 78 78 WNW 14 22 30 1016 10 16.09344 0 0
3:15 am 03:15 Clear 30 -1 24 -4.6 77 77 WNW 14 22 29.97 1015 10 16.09344 0 0
3:35 am 03:35 Clear 30 -0.9 24 -4.7 76 76 WNW 17 28 29.97 1015 10 16.09344 0 0
3:55 am 03:55 Clear 31 -0.7 24 -4.6 75 75 WNW 17 28 29.94 1014 10 16.09344 0 0
4:15 am 04:15 Clear 31 -0.5 24 -4.5 75 75 WNW 17 28 29.94 1014 10 16.09344 0 0
4:35 am 04:35 Clear 30 -1 24 -4.5 77 77 WNW 13 20 29.97 1015 10 16.09344 0 0
4:55 am 04:55 Clear 31 -0.5 24 -4.5 75 75 WNW 17 28 29.94 1014 10 16.09344 0 0
5:15 am 05:15 Clear 31 -0.5 24 -4.5 75 75 WNW 16 26 29.91 1013 10 16.09344 0 0
5:35 am 05:35 Clear 31 -0.6 24 -4.5 75 75 WNW 15 24 29.91 1013 10 16.09344 0 0
5:55 am 05:55 Clear 31 -0.7 24 -4.5 76 76 WNW 15 24 29.91 1013 10 16.09344 0 0
6:15 am 06:15 Clear 31 -0.5 24 -4.3 76 76 WNW 17 28 29.94 1014 10 16.09344 0 0
6:35 am 06:35 Clear 31 -0.8 24 -4.4 77 77 WNW 16 26 29.97 1015 10 16.09344 0 0
6:55 am 06:55 Clear 30 -1.2 24 -4.5 79 79 WNW 15 24 29.97 1015 10 16.09344 0 0
7:15 am 07:15 Clear 30 -1.2 24 -4.5 79 79 WNW 16 26 29.97 1015 10 16.09344 0 0
7:35 am 07:35 Clear 30 -1 24 -4.5 77 77 WNW 15 24 30 1016 10 16.09344 0 0
7:55 am 07:55 Clear 30 -1 24 -4.5 77 77 WNW 10 17 30 1016 10 16.09344 0 0
8:15 am 08:15 Sunny 30 -1 24 -4.5 77 77 WNW 9 15 30 1016 10 16.09344 0 0
8:35 am 08:35 Sunny 32 -0.2 24 -4.3 74 74 WNW 13 20 30.03 1017 10 16.09344 0 0
8:55 am 08:55 Sunny 32 -0.1 24 -4.3 74 74 WNW 13 20 30 1016 10 16.09344 0 0
9:15 am 09:15 Sunny 32 -0.1 25 -4.1 75 75 WNW 13 20 30 1016 10 16.09344 0 0
9:35 am 09:35 Sunny 33 0.4 25 -3.8 74 74 WNW 13 20 30 1016 10 16.09344 0 0
9:55 am 09:55 Sunny 34 1 26 -3.5 72 72 WNW 15 24 30 1016 10 16.09344 0 0
10:15 am 10:15 Sunny 35 1.5 26 -3.2 71 71 WNW 16 26 30 1016 10 16.09344 0 0
10:35 am 10:35 Sunny 36 2 27 -2.7 71 71 WNW 10 17 30 1016 10 16.09344 0 0
10:55 am 10:55 Sunny 37 2.6 27 -2.6 69 69 WNW 18 30 30 1016 10 16.09344 0 0
11:15 am 11:15 Sunny 37 3 28 -2.1 69 69 WNW 13 20 29.97 1015 10 16.09344 0 0
11:35 am 11:35 Sunny 38 3.4 28 -2.1 68 68 WNW 14 22 29.97 1015 10 16.09344 0 0
11:55 am 11:55 Sunny 39 3.7 29 -1.7 68 68 WNW 13 20 29.97 1015 10 16.09344 0 0
12:15 pm 12:15 Sunny 40 4.3 29 -1.6 66 66 NW 15 24 29.97 1015 10 16.09344 0 0
12:35 pm 12:35 Sunny 40 4.5 29 -1.4 66 66 NW 15 24 29.97 1015 10 16.09344 0 0
12:55 pm 12:55 Sunny 40 4.7 31 -0.8 68 68 NW 8 13 29.94 1014 10 16.09344 0 0
1:15 pm 13:15 Sunny 41 5 31 -0.6 67 67 WNW 9 15 29.94 1014 10 16.09344 0 0
1:35 pm 13:35 Sunny 41 5 31 -0.4 68 68 WNW 9 15 29.94 1014 10 16.09344 0 0
1:55 pm 13:55 Sunny 41 4.9 32 -0.1 70 70 WNW 10 17 29.94 1014 10 16.09344 0 0
2:15 pm 14:15 Sunny 42 5.5 32 0 68 68 WNW 9 15 29.94 1014 10 16.09344 0 0
2:35 pm 14:35 Sunny 42 5.6 32 0.1 68 68 WNW 9 15 29.94 1014 10 16.09344 0 0
2:55 pm 14:55 Sunny 43 6 33 0.4 68 68 WNW 8 13 29.91 1013 10 16.09344 0 0
3:15 pm 15:15 Sunny 44 6.6 33 0.5 65 65 WNW 5 7 29.91 1013 10 16.09344 0 0
3:35 pm 15:35 Sunny 44 6.5 34 1.2 69 69 Calm 29.91 1013 10 16.09344 0 0
3:55 pm 15:55 Sunny 45 7 34 1.2 67 67 Calm 29.91 1013 10 16.09344 0 0
4:15 pm 16:15 Sunny 45 7 34 1.3 67 67 W 3 6 29.91 1013 10 16.09344 0 0
4:35 pm 16:35 Sunny 45 7 34 1 66 66 W 3 6 29.91 1013 10 16.09344 0 0
4:55 pm 16:55 Sunny 44 6.8 33 0.8 66 66 Calm 29.94 1014 10 16.09344 0 0
5:15 pm 17:15 Sunny 44 6.4 33 0.5 66 66 Calm 29.94 1014 10 16.09344 0 0
5:35 pm 17:35 Clear 42 5.4 33 0.4 70 70 Calm 29.97 1015 10 16.09344 0 0
5:55 pm 17:55 Clear 40 4.4 32 0.1 74 74 Calm 29.97 1015 10 16.09344 0 0
6:15 pm 18:15 Clear 37 2.6 32 -0.1 83 83 Calm 30 1016 10 16.09344 0 0
6:35 pm 18:35 Clear 38 3.1 32 0 80 80 Calm 29.97 1015 10 16.09344 0 0
6:55 pm 18:55 Clear 35 1.5 30 -0.9 84 84 NNW 3 6 30 1016 10 16.09344 0 0
7:15 pm 19:15 Clear 35 1.9 32 0 87 87 NNW 3 6 30 1016 10 16.09344 0 0
7:35 pm 19:35 Clear 34 1.2 30 -0.9 86 86 Calm 30.03 1017 10 16.09344 0 0
7:55 pm 19:55 Clear 32 0 29 -1.6 89 89 Calm 30 1016 10 16.09344 0 0
8:15 pm 20:15 Clear 32 0.2 30 -1.1 91 91 Calm 30 1016 10 16.09344 0 0
8:35 pm 20:35 Clear 32 0.2 30 -1.1 91 91 Calm 30.03 1017 10 16.09344 0 0
8:55 pm 20:55 Clear 32 0.2 30 -1.3 90 90 Calm 30.03 1017 10 16.09344 0 0
9:15 pm 21:15 Clear 31 -0.8 28 -2.5 88 88 NW 3 6 30.06 1018 10 16.09344 0 0
9:35 pm 21:35 Clear 31 -0.5 28 -2 90 90 Calm 30.06 1018 10 16.09344 0 0
9:55 pm 21:55 Clear 31 -0.5 28 -2.1 89 89 N 3 6 30.06 1018 10 16.09344 0 0
10:15 pm 22:15 Clear 30 -1.2 27 -2.7 90 90 N 5 7 30.06 1018 10 16.09344 0 0
10:35 pm 22:35 Clear 30 -1.1 28 -2.5 90 90 N 5 7 30.06 1018 10 16.09344 0 0
10:55 pm 22:55 Clear 29 -1.7 26 -3.1 90 90 N 5 7 30.06 1018 10 16.09344 0 0
11:15 pm 23:15 Clear 28 -2.3 26 -3.6 91 91 WNW 3 6 30.06 1018 10 16.09344 0 0
11:35 pm 23:35 Clear 27 -2.8 24 -4.2 90 90 WNW 3 6 30.06 1018 10 16.09344 0 0
11:55 pm 23:55 Clear 28 -2.3 26 -3.6 91 91 Calm 30.06 1018 10 16.09344 0 0

Powered by AerisWeather